Location: Bagnara
(41.0500°N, 14.7833°E)
Time: 12:53:54
(UTC+00:00)

Cosmos 1538 Rocket - Pass Details

Date: 20 June 2021
Orbit: 753 x 791 km, 74.0° (Epoch: 30 July)

Event Time Altitude Azimuth Distance (km) Brightness Sun altitude
Exits shadow 02:46:49 - 190° (S) 3,239 6.8 -7.2°
Reaches altitude 10° 02:49:08 10° 188° (S) 2,343 6.1 -6.8°
Maximum altitude 02:54:25 68° 106° (ESE) 844 4.4 -6.1°
Drops below altitude 10° 02:59:42 10° 24° (NNE) 2,341 7.7 -5.3°
Sets 03:02:06 0° 22° (NNE) 3,267 8.4 -4.9°
